Weather History for Springfield, MO

Change the Weather History Date:

Thursday, February 21, 2013

  Actual Average Record
Temperature  
Mean Temperature 31 °F 39 °F  
Max Temperature 33 °F 50 °F 73 °F (1935)
Min Temperature 28 °F 28 °F 0 °F (1978)
Degree Days  
Heating Degree Days 34 26  
Month to date heating degree days 557 606  
Since 1 July heating degree days 3073 3419  
Cooling Degree Days 0 0  
Month to date cooling degree days 0 0  
Year to date cooling degree days 0 0  
Moisture  
Dew Point 25 °F    
Average Humidity 73    
Maximum Humidity 92    
Minimum Humidity 53    
Precipitation  
Precipitation 0.62 in 0.09 in 1.66 in (1897)
Month to date precipitation 1.50 1.81  
Year to date precipitation 4.56 4.28  
Snow  
Snow 0.60 in - - ()
Month to date snowfall 2.1  
Since 1 July snowfall 3.8  
Snow Depth 1.00 in    
Sea Level Pressure  
Sea Level Pressure 29.87 in    
Wind  
Wind Speed 15 mph (ESE)    
Max Wind Speed 31 mph    
Max Gust Speed 39 mph    
Visibility 7 miles    
Events Rain , Thunderstorm    
T = Trace of Precipitation, MM = Missing Value Source: NWS Daily Summary

Daily Weather History Graph

Daily Weather History Graph

Search for Another Location

Airport:

Trip Planner

Search our weather history database for the weather conditions in past years. The results will help you decide how hot, cold, wet, or windy it might be!

Date:

Astronomy

Feb. 21, 2013 Rise Set
Actual Time 6:54 AM CST 5:59 PM CST
Civil Twilight 6:28 AM CST 6:26 PM CST
Nautical Twilight 5:58 AM CST 6:56 PM CST
Astronomical Twilight 5:28 AM CST 7:26 PM CST
Moon 2:18 PM CST (2/21) 3:56 AM CST (2/21)
Length of Visible Light 11h 57m
Length of Day
11h 05m
Waxing Gibbous, 84% of the Moon is Illuminated
Feb 21
Waxing Gibbous
Feb 25
Full
Mar 4
Last Quarter
Mar 11
New
Mar 19
First Quarter

Hourly Weather History & Observations

Time (CST) Temp. Windchill Dew Point Humidity Pressure Visibility Wind Dir Wind Speed Gust Speed Precip Events Conditions
12:09 AM 30.9 °F 21.7 °F 15.1 °F 52% 30.11 in 9.0 mi East 11.5 mph - 0.00 in   Overcast
12:52 AM 30.0 °F 20.0 °F 17.1 °F 59% 30.14 in 10.0 mi East 12.7 mph - 0.01 in   Overcast
1:02 AM 30.0 °F 19.5 °F 18.0 °F 61% 30.09 in 10.0 mi East 13.8 mph - 0.00 in   Overcast
1:52 AM 30.0 °F 18.7 °F 16.0 °F 56% 30.11 in 10.0 mi ESE 16.1 mph - 0.00 in   Overcast
2:44 AM 30.0 °F 19.1 °F 16.0 °F 56% 30.03 in 10.0 mi East 15.0 mph - N/A   Overcast
2:52 AM 30.0 °F 20.0 °F 17.1 °F 59% 30.07 in 10.0 mi ESE 12.7 mph - 0.00 in   Overcast
3:49 AM 28.4 °F 16.2 °F 17.6 °F 64% 29.98 in 10.0 mi ESE 17.3 mph - 0.00 in   Overcast
3:52 AM 28.9 °F 16.5 °F 17.1 °F 61% 30.01 in 10.0 mi East 18.4 mph 25.3 mph 0.00 in   Overcast
4:52 AM 28.0 °F 15.7 °F 19.9 °F 72% 29.99 in 10.0 mi ESE 17.3 mph 26.5 mph 0.00 in   Overcast
5:09 AM 28.0 °F 16.1 °F 19.9 °F 72% 29.96 in 8.0 mi ESE 16.1 mph - 0.00 in Rain Light Freezing Rain
5:17 AM 28.9 °F 17.3 °F 21.9 °F 75% 29.95 in 4.0 mi East 16.1 mph 24.2 mph 0.02 in Rain Light Freezing Rain
5:33 AM 28.0 °F 16.5 °F 23.0 °F 81% 29.94 in 7.0 mi East 15.0 mph 25.3 mph 0.05 in Rain Light Freezing Rain
5:36 AM 28.0 °F 14.6 °F 23.0 °F 81% 29.93 in 8.0 mi East 20.7 mph 24.2 mph 0.05 in Rain Light Freezing Rain
5:52 AM 28.0 °F 17.5 °F 21.9 °F 78% 30.00 in 10.0 mi ESE 12.7 mph 26.5 mph 0.05 in Rain , Thunderstorm Light Freezing Rain
6:04 AM 28.9 °F 16.5 °F 21.9 °F 75% 29.92 in 10.0 mi East 18.4 mph - 0.02 in Rain , Thunderstorm Light Freezing Rain
6:20 AM 28.9 °F 17.7 °F 23.0 °F 78% 29.92 in 9.0 mi East 15.0 mph 25.3 mph 0.03 in Rain , Thunderstorm Light Freezing Rain
6:52 AM 28.9 °F 16.9 °F 24.1 °F 82% 29.94 in 8.0 mi East 17.3 mph - 0.12 in Rain Light Freezing Rain
7:12 AM 28.9 °F 16.5 °F 24.1 °F 82% 29.89 in 9.0 mi ESE 18.4 mph 28.8 mph 0.03 in Rain , Thunderstorm Light Freezing Rain
7:38 AM 28.9 °F 15.1 °F 25.0 °F 85% 29.87 in 8.0 mi East 23.0 mph - 0.08 in Rain , Thunderstorm Light Freezing Rain
7:45 AM 28.9 °F 16.1 °F 25.0 °F 85% 29.87 in 8.0 mi ESE 19.6 mph 29.9 mph 0.08 in Rain Light Freezing Rain
7:52 AM 28.9 °F 15.1 °F 26.1 °F 89% 29.90 in 5.0 mi ESE 23.0 mph 29.9 mph 0.08 in Rain Light Freezing Rain
8:16 AM 28.9 °F 14.3 °F 25.0 °F 85% 29.83 in 10.0 mi ESE 26.5 mph 36.8 mph 0.02 in Rain Light Freezing Rain
8:52 AM 28.9 °F 14.3 °F 24.1 °F 82% 29.85 in 10.0 mi ESE 26.5 mph 35.7 mph 0.02 in Rain Light Freezing Rain
9:20 AM 28.9 °F 19.8 °F 24.1 °F 82% 29.87 in 10.0 mi East 10.4 mph 34.5 mph 0.00 in Rain , Thunderstorm Light Freezing Rain
9:35 AM 28.9 °F 19.2 °F 23.0 °F 78% 29.91 in 9.0 mi ESE 11.5 mph 21.9 mph 0.03 in Rain Light Freezing Rain
9:45 AM 28.9 °F 18.6 °F 23.0 °F 78% 29.86 in 10.0 mi ENE 12.7 mph 16.1 mph 0.03 in Rain , Thunderstorm Light Freezing Rain
9:52 AM 28.9 °F 18.6 °F 24.1 °F 82% 29.90 in 10.0 mi East 12.7 mph - 0.03 in Rain , Thunderstorm Light Freezing Rain
10:03 AM 28.9 °F 21.9 °F 24.1 °F 82% 29.90 in 2.0 mi Variable 6.9 mph - 0.04 in Rain Light Freezing Rain
10:10 AM 28.9 °F 21.1 °F 24.1 °F 82% 29.91 in 2.5 mi SE 8.1 mph - 0.06 in Rain , Thunderstorm Light Freezing Rain
10:20 AM 28.0 °F 16.5 °F 24.1 °F 85% 29.86 in 1.2 mi ENE 15.0 mph - 0.13 in Rain , Thunderstorm Light Freezing Rain
10:25 AM 28.0 °F 20.0 °F 24.1 °F 85% 29.88 in 2.0 mi ENE 8.1 mph 18.4 mph 0.13 in Rain , Thunderstorm Light Freezing Rain
10:31 AM 28.9 °F 21.9 °F 25.0 °F 85% 29.96 in 3.0 mi Variable 6.9 mph - 0.15 in Rain , Thunderstorm Light Freezing Rain
10:37 AM 28.0 °F 20.8 °F 25.0 °F 88% 29.93 in 1.8 mi NE 6.9 mph - 0.18 in Rain , Thunderstorm Light Freezing Rain
10:46 AM 28.4 °F 20.4 °F 24.8 °F 86% 29.92 in 2.0 mi ENE 8.1 mph - 0.20 in Rain , Thunderstorm Light Freezing Rain
10:52 AM 28.0 °F 22.8 °F 25.0 °F 88% 29.97 in 2.0 mi East 4.6 mph - 0.22 in Rain , Thunderstorm Light Freezing Rain
10:57 AM 28.0 °F 18.1 °F 25.0 °F 88% 29.89 in 1.5 mi ENE 11.5 mph - 0.03 in Rain Light Freezing Rain
11:12 AM 28.0 °F 21.7 °F 26.1 °F 92% 29.93 in 3.0 mi East 5.8 mph - 0.04 in Rain Light Freezing Rain
11:20 AM 28.9 °F 19.2 °F 26.1 °F 89% 29.89 in 1.8 mi East 11.5 mph - 0.06 in Rain Light Freezing Rain
11:45 AM 28.9 °F 16.9 °F 26.1 °F 89% 29.84 in 3.0 mi East 17.3 mph - 0.08 in Rain Light Freezing Rain
11:52 AM 28.4 °F 15.8 °F 26.6 °F 93% 29.83 in 4.0 mi East 18.4 mph 24.2 mph N/A Rain Light Freezing Rain
12:52 PM 30.0 °F 18.7 °F 27.0 °F 88% 29.81 in 10.0 mi East 16.1 mph 26.5 mph 0.01 in Rain Light Freezing Rain
1:06 PM 30.0 °F 18.3 °F 26.1 °F 85% 29.79 in 10.0 mi ESE 17.3 mph 26.5 mph 0.00 in Rain Light Freezing Rain
1:16 PM 30.0 °F 18.7 °F 26.1 °F 85% 29.76 in 10.0 mi ESE 16.1 mph 25.3 mph 0.00 in Rain Light Freezing Rain
1:50 PM 30.2 °F 18.1 °F 26.6 °F 86% 29.74 in 10.0 mi ESE 18.4 mph 26.5 mph 0.00 in Rain Light Freezing Rain
1:52 PM 30.0 °F 17.5 °F 26.1 °F 85% 29.77 in 10.0 mi ESE 19.6 mph 26.5 mph 0.00 in Rain Light Freezing Rain
2:11 PM 30.0 °F 17.9 °F 26.1 °F 85% 29.73 in 10.0 mi ESE 18.4 mph 26.5 mph 0.00 in Rain Light Freezing Rain
2:25 PM 30.0 °F 20.0 °F 27.0 °F 88% 29.73 in 10.0 mi ESE 12.7 mph - 0.00 in   Overcast
2:52 PM 30.9 °F 21.7 °F 28.0 °F 89% 29.75 in 10.0 mi ESE 11.5 mph - 0.00 in   Overcast
3:03 PM 30.9 °F 20.7 °F 28.0 °F 89% 29.71 in 9.0 mi ESE 13.8 mph - 0.00 in   Overcast
3:52 PM 32.0 °F 21.2 °F 28.0 °F 85% 29.74 in 6.0 mi SE 16.1 mph 23.0 mph 0.00 in   Overcast
4:13 PM 30.2 °F 19.3 °F 28.4 °F 93% 29.71 in 3.0 mi SE 15.0 mph - N/A   Overcast
4:52 PM 30.9 °F 19.4 °F 28.9 °F 92% 29.75 in 5.0 mi SE 17.3 mph - N/A   Overcast
5:16 PM 32.0 °F 19.8 °F 28.9 °F 88% 29.72 in 3.0 mi SE 20.7 mph 27.6 mph 0.00 in Rain Light Freezing Rain
5:33 PM 32.0 °F 22.1 °F 28.9 °F 88% 29.73 in 3.0 mi SSE 13.8 mph - 0.00 in   Overcast
5:43 PM 32.0 °F 21.2 °F 30.0 °F 92% 29.73 in 2.5 mi SSE 16.1 mph - 0.00 in Rain Light Freezing Rain
5:52 PM 32.0 °F 21.2 °F 28.9 °F 88% 29.77 in 2.5 mi SSE 16.1 mph - 0.00 in Rain Light Freezing Rain
6:00 PM 30.9 °F 20.2 °F 28.9 °F 92% 29.74 in 3.0 mi SSE 15.0 mph - 0.00 in Rain Light Freezing Rain
6:16 PM 30.9 °F 19.8 °F 28.9 °F 92% 29.74 in 7.0 mi SSE 16.1 mph - 0.00 in   Overcast
6:52 PM 30.9 °F 20.7 °F 28.9 °F 92% 29.78 in 10.0 mi SSE 13.8 mph - 0.00 in   Overcast
7:52 PM 30.9 °F 20.7 °F 28.9 °F 92% 29.79 in 10.0 mi SSE 13.8 mph - N/A   Overcast
8:52 PM 32.0 °F 22.1 °F 30.0 °F 92% 29.79 in 4.0 mi SSE 13.8 mph - 0.00 in   Overcast
9:52 PM 32.0 °F 22.5 °F 30.2 °F 93% 29.77 in 10.0 mi SSE 12.7 mph - N/A   Overcast
10:20 PM 32.0 °F 21.6 °F 30.9 °F 96% 29.78 in 10.0 mi South 15.0 mph - N/A   Overcast
10:31 PM 32.0 °F 23.0 °F 30.9 °F 96% 29.77 in 9.0 mi South 11.5 mph - N/A   Overcast
10:52 PM 32.0 °F 22.1 °F 30.9 °F 96% 29.82 in 10.0 mi South 13.8 mph - N/A   Overcast
11:52 PM 33.1 °F 26.1 °F 32.0 °F 96% 29.83 in 6.0 mi SW 8.1 mph - 0.00 in   Overcast